2023/09/03 00:00:00,30.3,20.4
2023/09/03 00:10:00,30.0,20.4
2023/09/03 00:20:00,30.1,20.3
2023/09/03 00:30:00,29.9,20.3
2023/09/03 00:40:00,30.1,20.0
2023/09/03 00:50:00,30.0,20.3
2023/09/03 01:00:00,30.3,20.2
2023/09/03 01:10:00,30.0,20.4
2023/09/03 01:20:00,29.6,20.4
2023/09/03 01:30:00,30.0,20.4
2023/09/03 01:40:00,29.7,20.4
2023/09/03 01:50:00,29.6,20.4
2023/09/03 02:00:00,29.4,20.4
2023/09/03 02:10:00,29.6,20.5
2023/09/03 02:20:00,30.2,20.6
2023/09/03 02:30:00,30.2,20.4
2023/09/03 02:40:00,30.4,20.4
2023/09/03 02:50:00,30.5,20.4
2023/09/03 03:00:00,30.1,20.4
2023/09/03 03:10:00,29.9,20.4
2023/09/03 03:20:00,29.0,20.4
2023/09/03 03:30:00,15.3,20.4
2023/09/03 03:40:00, 9.5,20.1
2023/09/03 03:50:00,13.1,20.3
2023/09/03 04:00:00,29.9,20.2
2023/09/03 04:10:00,29.8,20.2
2023/09/03 04:20:00,29.5,20.2
2023/09/03 04:30:00,29.2,20.1
2023/09/03 04:40:00,29.3,20.0
2023/09/03 04:50:00,29.2,19.9
2023/09/03 05:00:00,29.1,19.8
2023/09/03 05:10:00,28.9,19.8
2023/09/03 05:20:00,29.2,19.7
2023/09/03 05:30:00,28.7,19.6
2023/09/03 05:40:00,28.4,19.5
2023/09/03 05:50:00,28.5,19.6
2023/09/03 06:00:00,28.1,19.8
2023/09/03 06:10:00,28.0,19.9
2023/09/03 06:20:00,27.7,20.3
2023/09/03 06:30:00,27.7,20.0
2023/09/03 06:40:00,28.1,20.2
2023/09/03 06:50:00,28.3,20.2
2023/09/03 07:00:00,28.5,20.2
2023/09/03 07:10:00,28.8,20.3
2023/09/03 07:20:00,28.8,21.3
2023/09/03 07:30:00,28.9,20.4
2023/09/03 07:40:00,28.7,20.9
2023/09/03 07:50:00,28.3,21.2
2023/09/03 08:00:00,28.5,21.4
2023/09/03 08:10:00,30.1,22.2
2023/09/03 08:20:00,30.1,23.0
2023/09/03 08:30:00,30.1,24.0
2023/09/03 08:40:00, 7.8,24.3
2023/09/03 08:50:00, 1.5,24.7
2023/09/03 09:00:00,17.3,24.9
2023/09/03 09:10:00,35.2,25.4
2023/09/03 09:20:00,34.6,25.4
2023/09/03 09:30:00,---,25.0
2023/09/03 09:40:00,35.5,25.7
2023/09/03 09:50:00,34.2,25.9
2023/09/03 10:00:00,---,26.1
2023/09/03 10:10:00, 0.0,26.1
2023/09/03 10:20:00,---,26.5
2023/09/03 10:30:00,---,27.6
2023/09/03 10:40:00,---,27.9
2023/09/03 10:50:00,---,27.5
2023/09/03 11:00:00,---,28.2
2023/09/03 11:10:00, 1.3,28.6
2023/09/03 11:20:00, 1.5,28.6
2023/09/03 11:30:00, 1.7,28.0
2023/09/03 11:40:00, 1.8,27.7
2023/09/03 11:50:00, 2.2,27.8
2023/09/03 12:00:00, 1.9,27.9
2023/09/03 12:10:00, 2.0,28.6
2023/09/03 12:20:00, 5.6,29.0
2023/09/03 12:30:00,12.3,28.7
2023/09/03 12:40:00,22.7,28.3
2023/09/03 12:50:00,---,28.2
2023/09/03 13:00:00,---,28.6
2023/09/03 13:10:00,24.2,29.3
2023/09/03 13:20:00,20.7,29.6
2023/09/03 13:30:00,24.1,29.3
2023/09/03 13:40:00,---,29.3
2023/09/03 13:50:00,---,29.3
2023/09/03 14:00:00,---,30.1
2023/09/03 14:10:00,21.9,30.3
2023/09/03 14:20:00,23.4,28.5
2023/09/03 14:30:00,---,29.7
2023/09/03 14:40:00,22.7,29.5
2023/09/03 14:50:00,22.6,29.9
2023/09/03 15:00:00,23.4,28.9
2023/09/03 15:10:00,23.5,28.7
2023/09/03 15:20:00,22.9,29.1
2023/09/03 15:30:00,24.1,29.1
2023/09/03 15:40:00,22.7,29.3
2023/09/03 15:50:00,22.3,29.0
2023/09/03 16:00:00,21.5,29.0
2023/09/03 16:10:00,19.0,28.5
2023/09/03 16:20:00,21.4,28.3
2023/09/03 16:30:00,25.3,27.9
2023/09/03 16:40:00,37.6,26.9
2023/09/03 16:50:00,43.0,26.6
2023/09/03 17:00:00,49.4,26.0
2023/09/03 17:10:00,52.7,26.1
2023/09/03 17:20:00,54.3,25.6
2023/09/03 17:30:00,53.8,25.3
2023/09/03 17:40:00,50.9,25.0
2023/09/03 17:50:00,50.8,24.9
2023/09/03 18:00:00,49.4,24.5
2023/09/03 18:10:00,48.0,24.1
2023/09/03 18:20:00,46.2,23.9
2023/09/03 18:30:00,47.0,23.8
2023/09/03 18:40:00,47.5,23.5
2023/09/03 18:50:00,46.9,23.3
2023/09/03 19:00:00,48.0,23.8
2023/09/03 19:10:00,46.6,23.1
2023/09/03 19:20:00,52.1,22.6
2023/09/03 19:30:00,53.7,22.8
2023/09/03 19:40:00,54.8,22.7
2023/09/03 19:50:00,54.9,22.6
2023/09/03 20:00:00,56.7,22.3
2023/09/03 20:10:00,57.2,22.3
2023/09/03 20:20:00,57.7,22.1
2023/09/03 20:30:00,57.9,22.1
2023/09/03 20:40:00,58.2,22.0
2023/09/03 20:50:00,58.3,21.9
2023/09/03 21:00:00,58.4,21.8
2023/09/03 21:10:00,58.6,21.5
2023/09/03 21:20:00,58.7,21.7
2023/09/03 21:30:00,58.9,21.4
2023/09/03 21:40:00,59.1,21.4
2023/09/03 21:50:00,59.1,21.3
2023/09/03 22:00:00,59.2,21.1
2023/09/03 22:10:00,59.3,21.6
2023/09/03 22:20:00,59.4,21.0
2023/09/03 22:30:00,59.5,20.7
2023/09/03 22:40:00,59.5,20.9
2023/09/03 22:50:00,59.6,20.8
2023/09/03 23:00:00,59.7,20.7
2023/09/03 23:10:00,59.7,20.6
2023/09/03 23:20:00,59.8,20.7
2023/09/03 23:30:00,59.9,20.5
2023/09/03 23:40:00,60.0,20.9
2023/09/03 23:50:00,60.0,20.8
